Parsons, KS

4:21 AM CDT on May 26, 2017 (GMT -0500)
Tri-City

Weather History for KPPF - November, 2011

Change the Weather History Date:

Tuesday, November 8, 2011

  Actual Average Record
Temperature  
Mean Temperature 54 °F -  
Max Temperature 64 °F 58 °F 84 °F (2006)
Min Temperature 42 °F 39 °F 11 °F (1991)
Degree Days  
Heating Degree Days 10    
Growing Degree Days 4 (Base 50)    
Moisture  
Dew Point 57 °F    
Average Humidity 90    
Maximum Humidity 100    
Minimum Humidity 77    
Precipitation  
Precipitation 0.95 in - - ()
Sea Level Pressure  
Sea Level Pressure 29.85 in    
Wind  
Wind Speed 5 mph (South)    
Max Wind Speed 22 mph    
Max Gust Speed 30 mph    
Visibility 7 miles    
Events Rain , Thunderstorm    
Averages and records for this station are not official NWS values.
T = Trace of Precipitation, MM = Missing Value Source: NWS Daily Summary

Daily Weather History Graph

Daily Weather History Graph

Search for Another Location

Airport or City:

Trip Planner

Search our weather history database for the weather conditions in past years. The results will help you decide how hot, cold, wet, or windy it might be!

Date:

Astronomy

Nov. 08, 2011 Rise Set
Actual Time 6:53 AM CST 5:17 PM CST
Civil Twilight 6:26 AM CST 5:44 PM CST
Nautical Twilight 5:55 AM CST 6:15 PM CST
Astronomical Twilight 5:24 AM CST 6:46 PM CST
Moon 3:56 PM CST (11/8) 4:54 AM CST (11/8)
Length of Visible Light 11h 18m
Length of Day
10h 23m
Waxing Gibbous, 96% of the Moon is Illuminated
Nov 8
Waxing Gibbous
Nov 10
Full
Nov 18
Last Quarter
Nov 25
New
Dec 2
First Quarter

Hourly Weather History & Observations

Time (CST) Temp. Windchill Dew Point Humidity Pressure Visibility Wind Dir Wind Speed Gust Speed Precip Events Conditions
12:52 AM 59.0 °F - 57.0 °F 93% 29.88 in 5.0 mi Calm Calm - 0.22 in Rain , Thunderstorm Thunderstorms and Rain
1:22 AM 59.0 °F - 57.2 °F 94% 29.89 in 4.0 mi Calm Calm - 0.13 in Rain , Thunderstorm Heavy Rain
1:52 AM 59.0 °F - 57.0 °F 93% 29.90 in 4.0 mi Calm Calm - 0.25 in Rain Rain
2:38 AM 59.0 °F - 57.2 °F 94% 29.86 in 9.0 mi Variable 5.8 mph - 0.12 in Rain , Thunderstorm Thunderstorms and Rain
2:47 AM 59.0 °F - 57.2 °F 94% 29.78 in 9.0 mi East 10.4 mph 19.6 mph 0.12 in Rain Light Rain
2:52 AM 59.0 °F - 57.0 °F 93% 29.75 in 10.0 mi East 10.4 mph 23.0 mph 0.12 in Rain Light Rain
3:02 AM 59.0 °F - 57.2 °F 94% 29.81 in 10.0 mi Variable 4.6 mph 17.3 mph 0.00 in   Overcast
3:26 AM 59.0 °F - 59.0 °F 100% 29.86 in 10.0 mi Calm Calm - 0.00 in   Overcast
3:52 AM 59.0 °F - 57.0 °F 93% 29.85 in 10.0 mi SE 4.6 mph - 0.00 in   Overcast
5:52 AM 59.0 °F - 55.9 °F 90% 29.87 in 10.0 mi Variable 3.5 mph - N/A   Overcast
6:52 AM 59.0 °F - 57.0 °F 93% 29.87 in 9.0 mi Calm Calm - 0.02 in Rain Light Rain
7:10 AM 59.0 °F - 57.2 °F 94% 29.89 in 6.0 mi Calm Calm - 0.03 in Rain Rain
7:52 AM 59.0 °F - 57.0 °F 93% 29.91 in 4.0 mi South 5.8 mph - 0.11 in Rain Rain
8:52 AM 59.0 °F - 57.0 °F 93% 29.89 in 3.0 mi East 4.6 mph - 0.19 in Rain Rain
8:59 AM 59.0 °F - 57.2 °F 94% 29.89 in 3.0 mi East 3.5 mph - 0.01 in Rain Light Rain
9:20 AM 59.0 °F - 57.2 °F 94% 29.88 in 10.0 mi Variable 5.8 mph - 0.01 in   Overcast
9:52 AM 60.1 °F - 57.9 °F 93% 29.87 in 10.0 mi SE 8.1 mph - 0.01 in   Overcast
10:52 AM 60.1 °F - 57.0 °F 90% 29.86 in 10.0 mi SE 8.1 mph - N/A   Overcast
11:52 AM 61.0 °F - 57.0 °F 87% 29.84 in 10.0 mi ESE 6.9 mph - N/A   Overcast
12:47 PM 62.6 °F - 57.2 °F 82% 29.83 in 10.0 mi SE 8.1 mph - N/A   Overcast
12:52 PM 62.1 °F - 57.0 °F 84% 29.82 in 10.0 mi SE 6.9 mph - N/A   Overcast
1:52 PM 63.0 °F - 57.0 °F 81% 29.80 in 10.0 mi Variable 3.5 mph - N/A   Overcast
2:18 PM 64.4 °F - 57.2 °F 77% 29.79 in 10.0 mi SE 3.5 mph - N/A   Overcast
2:52 PM 64.0 °F - 57.0 °F 78% 29.76 in 10.0 mi SSE 4.6 mph - N/A   Overcast
4:36 PM 62.6 °F - 59.0 °F 88% 29.77 in 1.8 mi South 10.4 mph - 0.07 in Rain Heavy Rain
4:48 PM 62.6 °F - 59.0 °F 88% 29.78 in 3.0 mi South 8.1 mph - 0.08 in Rain Light Rain
5:08 PM 62.6 °F - 59.0 °F 88% 29.77 in 9.0 mi SSW 3.5 mph - 0.00 in Rain Light Rain
5:18 PM 62.6 °F - 59.0 °F 88% 29.77 in 8.0 mi South 3.5 mph - 0.00 in Rain Light Rain
5:52 PM 57.9 °F - 55.9 °F 93% 29.79 in 8.0 mi WSW 17.3 mph 24.2 mph 0.03 in Rain Light Rain
6:36 PM 53.6 °F - 51.8 °F 94% 29.83 in 8.0 mi West 17.3 mph 20.7 mph 0.00 in   Overcast
6:52 PM 52.0 °F - - N/A% 29.83 in 5.0 mi WNW 15.0 mph - 0.00 in   Haze
7:21 PM 50.0 °F - - N/A% 29.84 in 10.0 mi WNW 10.4 mph - N/A   Overcast
7:52 PM 50.0 °F - 46.9 °F 89% 29.84 in 10.0 mi WNW 11.5 mph - N/A   Overcast
8:52 PM 48.0 °F - 46.0 °F 93% 29.86 in 7.0 mi WNW 11.5 mph - N/A   Overcast
9:52 PM 46.0 °F 40.2 °F - N/A% 29.91 in 3.0 mi WNW 12.7 mph - 0.00 in Rain Light Rain
10:19 PM 46.4 °F 40.4 °F - N/A% 29.93 in 3.0 mi WNW 13.8 mph - 0.00 in Rain Light Rain
10:25 PM 46.4 °F 40.4 °F - N/A% 29.93 in 3.0 mi WNW 13.8 mph - 0.00 in Rain Light Rain
10:52 PM 45.0 °F 37.9 °F - N/A% 29.94 in 3.0 mi NW 16.1 mph 23.0 mph 0.00 in   Overcast
11:52 PM 42.1 °F 32.8 °F - N/A% 29.98 in 3.0 mi NW 21.9 mph 29.9 mph 0.00 in Rain Light Rain